Date String (YYYY-MM-DD hh:mm:ss) UTC,Instrument flags,Ambient pressure (hPa),Sample flow (lpm),Bypass flow (lpm),Sample temperature (°C),Ambient temperature (°C),ASC tube jacket temperature (°C),LED temperature (°C),Box temperature (°C),Sample RH (%),Span deviation,Mass concentration (μg/m³),Mass concentration (μg/m³),Mass concentration (μg/m³)
DateTimeUTC,F1_M11,P_M11,Q1_M11,Q2_M11,T1_M11,T2_M11,T3_M11,T4_M11,T5_M11,U1_M11,ZSPAN_M11,X0_M11,X2_M11,X1_M11
2022-10-17 09:00:00,,0833.4,4.99,0.00,26.1,24.4,00.0,35.0,27.8,12.7,0000.0,0007.73,0004.54,0004.23
2022-10-17 09:01:00,,0833.4,5.01,0.00,26.1,24.3,00.0,35.0,27.8,12.8,0000.0,0008.19,0004.57,0004.23
2022-10-17 09:02:00,,0833.4,5.00,0.00,26.1,24.3,00.0,35.0,27.8,12.7,0000.0,0008.69,0004.59,0004.24
2022-10-17 09:03:00,,0833.3,4.99,0.00,26.1,24.3,00.0,35.0,27.8,12.7,0000.0,0008.60,0004.58,0004.24
2022-10-17 09:04:00,,0833.3,5.01,0.00,26.0,24.3,00.0,35.0,27.8,12.8,0000.0,0008.32,0004.58,0004.24
2022-10-17 09:05:00,,0833.3,4.99,0.00,26.0,24.3,00.0,35.0,27.8,12.7,0000.0,0008.40,0004.59,0004.25
2022-10-17 09:06:00,,0833.3,5.02,0.00,26.0,24.3,00.0,35.0,27.7,12.7,0000.0,0008.55,0004.62,0004.26
2022-10-17 09:07:00,,0833.4,4.99,0.00,26.0,24.3,00.0,35.0,27.8,12.9,0000.0,0008.55,0004.61,0004.25
2022-10-17 09:08:00,,0833.4,5.01,0.00,26.0,24.3,00.0,34.9,27.7,12.8,0000.0,0008.55,0004.62,0004.26
2022-10-17 09:09:00,,0833.3,4.99,0.00,26.0,24.3,00.0,34.9,27.7,12.8,0000.0,0008.57,0004.61,0004.26
2022-10-17 09:10:00,,0833.3,5.01,0.00,26.0,24.3,00.0,34.9,27.7,12.7,0000.0,0008.72,0004.63,0004.26
2022-10-17 09:11:00,,0833.3,4.99,0.00,26.0,24.2,00.0,34.9,27.7,12.8,0000.0,0008.81,0004.65,0004.27
2022-10-17 09:12:00,,0833.3,5.01,0.00,26.0,24.2,00.0,34.9,27.6,12.7,0000.0,0008.57,0004.64,0004.27
2022-10-17 09:13:00,,0833.2,5.00,0.00,25.9,24.2,00.0,34.9,27.6,12.6,0000.0,0008.12,0004.60,0004.27
2022-10-17 09:14:00,,0833.2,4.99,0.00,25.9,24.2,00.0,34.9,27.6,12.8,0000.0,0007.70,0004.58,0004.27
2022-10-17 09:15:00,,0833.2,5.00,0.00,25.9,24.2,00.0,34.9,27.6,12.8,0000.0,0007.82,0004.59,0004.27
2022-10-17 09:16:00,,0833.2,5.00,0.00,25.9,24.2,00.0,34.9,27.7,12.8,0000.0,0007.87,0004.62,0004.27
2022-10-17 09:17:00,,0833.2,4.99,0.00,25.9,24.2,00.0,34.9,27.6,12.8,0000.0,0007.76,0004.63,0004.28
2022-10-17 09:18:00,,0833.2,5.02,0.00,25.9,24.2,00.0,34.8,27.7,12.8,0000.0,0007.75,0004.62,0004.28
2022-10-17 09:19:00,,0833.2,4.99,0.00,25.9,24.2,00.0,34.8,27.6,12.7,0000.0,0007.74,0004.62,0004.28
2022-10-17 09:20:00,,0833.1,5.01,0.00,25.9,24.2,00.0,34.8,27.6,12.8,0000.0,0008.26,0004.65,0004.29
2022-10-17 09:21:00,,0833.1,4.99,0.00,25.9,24.2,00.0,34.8,27.6,12.9,0000.0,0008.38,0004.65,0004.29
2022-10-17 09:22:00,,0833.1,4.99,0.00,25.8,24.1,00.0,34.8,27.6,12.9,0000.0,0008.32,0004.64,0004.29
2022-10-17 09:23:00,,0833.2,5.01,0.00,25.8,24.1,00.0,34.8,27.6,12.9,0000.0,0008.52,0004.63,0004.29
2022-10-17 09:24:00,,0833.2,4.99,0.00,25.8,24.1,00.0,34.8,27.5,12.9,0000.0,0008.52,0004.66,0004.30
2022-10-17 09:25:00,,0833.2,5.02,0.00,25.8,24.1,00.0,34.8,27.5,12.9,0000.0,0008.63,0004.69,0004.29
2022-10-17 09:26:00,,0833.2,4.99,0.00,25.8,24.1,00.0,34.8,27.5,13.0,0000.0,0008.62,0004.69,0004.29
2022-10-17 09:27:00,,0833.2,5.01,0.00,25.8,24.1,00.0,34.7,27.5,13.0,0000.0,0008.53,0004.67,0004.28
2022-10-17 09:28:00,,0833.2,5.00,0.00,25.8,24.1,00.0,34.7,27.6,13.0,0000.0,0008.51,0004.66,0004.27
2022-10-17 09:29:00,,0833.2,5.00,0.00,25.8,24.1,00.0,34.7,27.5,13.0,0000.0,0008.56,0004.67,0004.27
2022-10-17 09:30:00,,0833.1,5.01,0.00,25.8,24.1,00.0,34.7,27.5,13.0,0000.0,0008.64,0004.66,0004.26
2022-10-17 09:31:00,,0833.1,4.99,0.00,25.8,24.0,00.0,34.7,27.5,13.0,0000.0,0008.33,0004.64,0004.26
2022-10-17 09:32:00,,0833.2,5.01,0.00,25.8,24.0,00.0,34.7,27.6,12.9,0000.0,0007.96,0004.63,0004.26
2022-10-17 09:33:00,,0833.1,4.99,0.00,25.8,24.0,00.0,34.7,27.5,13.0,0000.0,0008.00,0004.65,0004.26
2022-10-17 09:34:00,,0833.2,5.00,0.00,25.7,24.0,00.0,34.7,27.5,13.0,0000.0,0007.79,0004.67,0004.26
2022-10-17 09:35:00,,0833.1,5.01,0.00,25.7,24.0,00.0,34.7,27.5,13.0,0000.0,0007.64,0004.67,0004.25
2022-10-17 09:36:00,,0833.1,4.99,0.00,25.7,24.0,00.0,34.7,27.5,13.1,0000.0,0007.57,0004.66,0004.26
2022-10-17 09:37:00,,0833.1,5.02,0.00,25.7,24.0,00.0,34.6,27.4,13.1,0000.0,0007.49,0004.65,0004.26
2022-10-17 09:38:00,,0833.1,4.99,0.00,25.7,24.0,00.0,34.6,27.5,13.1,0000.0,0007.41,0004.62,0004.24
2022-10-17 09:39:00,,0833.2,5.02,0.00,25.7,24.0,00.0,34.6,27.5,13.1,0000.0,0007.31,0004.58,0004.23
2022-10-17 09:40:00,,0833.2,5.00,0.00,25.7,24.0,00.0,34.6,27.5,13.1,0000.0,0007.20,0004.55,0004.22
2022-10-17 09:41:00,,0833.2,4.99,0.00,25.7,24.0,00.0,34.6,27.4,13.0,0000.0,0006.98,0004.53,0004.22
2022-10-17 09:42:00,,0833.2,5.02,0.00,25.7,24.0,00.0,34.6,27.4,13.1,0000.0,0006.89,0004.53,0004.21
2022-10-17 09:43:00,,0833.2,4.99,0.00,25.7,24.0,00.0,34.6,27.4,13.1,0000.0,0006.87,0004.52,0004.20
2022-10-17 09:44:00,,0833.2,5.00,0.00,25.6,24.0,00.0,34.6,27.4,13.0,0000.0,0006.78,0004.49,0004.19
2022-10-17 09:45:00,,0833.2,5.00,0.00,25.6,24.0,00.0,34.6,27.4,13.1,0000.0,0006.76,0004.47,0004.18
2022-10-17 09:46:00,,0833.1,4.99,0.00,25.6,24.0,00.0,34.6,27.4,13.1,0000.0,0006.86,0004.44,0004.17
2022-10-17 09:47:00,,0833.2,5.02,0.00,25.6,23.9,00.0,34.6,27.4,13.1,0000.0,0006.95,0004.42,0004.16
2022-10-17 09:48:00,,0833.1,4.99,0.00,25.6,23.9,00.0,34.5,27.3,13.2,0000.0,0007.41,0004.40,0004.16
2022-10-17 09:49:00,,0833.1,5.01,0.00,25.6,23.9,00.0,34.5,27.3,13.2,0000.0,0007.60,0004.42,0004.17
2022-10-17 09:50:00,,0833.2,4.99,0.00,25.6,23.9,00.0,34.5,27.3,13.2,0000.0,0007.63,0004.42,0004.16
2022-10-17 09:51:00,,0833.2,5.01,0.00,25.6,23.9,00.0,34.5,27.3,13.2,0000.0,0007.65,0004.41,0004.16
2022-10-17 09:52:00,,0833.2,4.98,0.00,25.5,23.8,00.0,34.5,27.2,13.2,0000.0,0007.66,0004.41,0004.15
2022-10-17 09:53:00,,0833.2,5.01,0.00,25.5,23.9,00.0,34.5,27.3,13.2,0000.0,0007.72,0004.43,0004.15
2022-10-17 09:54:00,,0833.2,4.99,0.00,25.5,23.9,00.0,34.5,27.3,13.1,0000.0,0007.73,0004.44,0004.16
2022-10-17 09:55:00,,0833.1,5.00,0.00,25.5,23.8,00.0,34.5,27.2,13.1,0000.0,0007.73,0004.44,0004.16
2022-10-17 09:56:00,,0833.1,5.00,0.00,25.5,23.8,00.0,34.5,27.2,13.1,0000.0,0007.69,0004.42,0004.17
2022-10-17 09:57:00,,0833.1,5.00,0.00,25.5,23.8,00.0,34.4,27.2,13.1,0000.0,0007.81,0004.43,0004.16
2022-10-17 09:58:00,,0833.1,5.01,0.00,25.5,23.8,00.0,34.4,27.2,13.1,0000.0,0008.84,0004.46,0004.15
2022-10-17 09:59:00,,0833.1,4.99,0.00,25.5,23.8,00.0,34.4,27.3,13.1,0000.0,0008.96,0004.47,0004.15
